Naples, FL

5:32 AM EDT on July 25, 2017 (GMT -0400)
Naples Municipal

Weather History for KAPF - February, 2013

Change the Weather History Date:

Tuesday, February 26, 2013

  Actual Average Record
Temperature  
Mean Temperature 83 °F 68 °F  
Max Temperature 90 °F 78 °F 89 °F (1962)
Min Temperature 75 °F 58 °F 31 °F (1967)
Degree Days  
Heating Degree Days 0 1  
Month to date heating degree days 36 47  
Since 1 July heating degree days 94 227  
Cooling Degree Days 18 5  
Month to date cooling degree days 136 97  
Year to date cooling degree days 329 183  
Growing Degree Days 32 (Base 50)    
Moisture  
Dew Point 70 °F    
Average Humidity 68    
Maximum Humidity 84    
Minimum Humidity 52    
Precipitation  
Precipitation T in 0.08 in 0.92 in (1952)
Month to date precipitation 1.60 1.96  
Year to date precipitation 1.75 3.81  
Snow  
Snow 0.00 in - - ()
Month to date snowfall 0.0  
Since 1 July snowfall 0.0  
Snow Depth 0.00 in    
Sea Level Pressure  
Sea Level Pressure 29.85 in    
Wind  
Wind Speed 13 mph (SW)    
Max Wind Speed 23 mph    
Max Gust Speed 35 mph    
Visibility 8 miles    
Events      
T = Trace of Precipitation, MM = Missing Value Source: NWS Daily Summary

Daily Weather History Graph

Daily Weather History Graph

Search for Another Location

Airport or City:

Trip Planner

Search our weather history database for the weather conditions in past years. The results will help you decide how hot, cold, wet, or windy it might be!

Date:

Astronomy

Feb. 26, 2013 Rise Set
Actual Time 6:53 AM EST 6:27 PM EST
Civil Twilight 6:29 AM EST 6:50 PM EST
Nautical Twilight 6:03 AM EST 7:17 PM EST
Astronomical Twilight 5:36 AM EST 7:43 PM EST
Moon 7:29 PM EST (2/26) 7:04 AM EST (2/26)
Length of Visible Light 12h 20m
Length of Day
11h 33m
Full, 99% of the Moon is Illuminated
Feb 26
Full
Mar 4
Last Quarter
Mar 11
New
Mar 19
First Quarter
Mar 27
Full

Hourly Weather History & Observations

Time (EST) Temp. Heat Index Dew Point Humidity Pressure Visibility Wind Dir Wind Speed Gust Speed Precip Events Conditions
12:53 AM - - - N/A% 29.82 in - North - - N/A   Unknown
1:53 AM - - - N/A% 29.79 in - North - - N/A   Unknown
2:53 AM - - - N/A% 29.79 in - North - - N/A   Unknown
3:53 AM - - - N/A% 29.78 in - North - - N/A   Unknown
4:53 AM - - - N/A% 29.77 in - North - - N/A   Unknown
5:53 AM 75.2 °F - 69.8 °F 83% 29.78 in 10.0 mi South 16.1 mph - N/A   Clear
6:53 AM 75.2 °F - 69.8 °F 83% 29.81 in 10.0 mi SSW 16.1 mph - N/A   Clear
7:53 AM 75.6 °F - 70.2 °F 83% 29.82 in 10.0 mi South 16.1 mph - N/A   Clear
8:53 AM 76.1 °F - 70.3 °F 82% 29.85 in 7.0 mi South 16.1 mph - N/A   Scattered Clouds
9:53 AM 77.4 °F - 70.2 °F 78% 29.86 in 7.0 mi South 13.8 mph 24.2 mph N/A   Scattered Clouds
10:53 AM - - - N/A% 29.87 in - North - - N/A   Unknown
11:53 AM - - - N/A% 29.88 in - North - - N/A   Unknown
12:53 PM - - - N/A% 29.84 in - North - - N/A   Unknown
1:53 PM 80.8 °F 84.4 °F 70.7 °F 71% 29.83 in 10.0 mi SSW 23.0 mph 34.5 mph N/A   Scattered Clouds
2:53 PM - - - N/A% 29.83 in - North - - N/A   Unknown
3:53 PM 78.8 °F - 71.6 °F 78% 29.83 in 10.0 mi South 11.5 mph 24.2 mph N/A   Clear
4:53 PM 90.0 °F 96.9 °F 72.0 °F 55% 29.83 in 6.0 mi SSW 16.1 mph 21.9 mph N/A   Haze
5:53 PM 89.1 °F 95.0 °F 71.1 °F 55% 29.83 in 7.0 mi SSW 12.7 mph - N/A   Mostly Cloudy
6:53 PM 89.1 °F 95.0 °F 71.1 °F 55% 29.85 in 8.0 mi SSW 11.5 mph - N/A   Overcast
7:02 PM 89.6 °F 96.2 °F 71.6 °F 55% 29.85 in 8.0 mi South 11.5 mph - N/A   Overcast
7:31 PM 87.8 °F 93.8 °F 71.6 °F 58% 29.85 in 9.0 mi SW 13.8 mph - 0.00 in   Overcast
7:53 PM 88.0 °F 93.8 °F 71.1 °F 57% 29.86 in 8.0 mi SSW 11.5 mph - 0.00 in   Overcast
8:49 PM 89.6 °F 96.2 °F 71.6 °F 55% 29.89 in 10.0 mi SW 15.0 mph - N/A   Overcast
8:53 PM 88.0 °F 93.8 °F 71.1 °F 57% 29.88 in 9.0 mi WSW 12.7 mph - N/A   Overcast
9:02 PM 87.8 °F 93.8 °F 71.6 °F 58% 29.89 in 8.0 mi WSW 8.1 mph - N/A   Mostly Cloudy
9:53 PM 90.0 °F 94.5 °F 69.1 °F 50% 29.90 in 8.0 mi WNW 4.6 mph - N/A   Overcast
10:17 PM 89.6 °F 92.2 °F 66.2 °F 46% 29.92 in 9.0 mi WNW 5.8 mph - N/A   Partly Cloudy
10:53 PM 81.0 °F 83.0 °F 66.0 °F 60% 29.91 in 8.0 mi NW 3.5 mph - N/A   Partly Cloudy
11:53 PM 75.9 °F - 64.9 °F 69% 29.90 in 8.0 mi Calm Calm - N/A   Clear